Showing default

CHINASAT-9C, 64470

Orbit data source: Space-Track

CHINASAT-9C, 64470 is a payload satellite owned by CAST (CN) in GEO that was launched on Fri, 20 Jun 2025 UTC via a CHANG ZHENG 3B launch vehicle from the Xichang Space Center, China (XSC). Payload-class satellites include a variety of spacecraft equipped with specific instruments for various scientific and technological missions. These include communications satellites like Starlink; space stations such as the ISS; scientific satellites like the Hubble; Earth observation satellites from companies like Planet Labs, Umbra, and HawkEye 360; GPS; miniature CubeSats for education and research; and military/defense satellites.

Not visible in the next 10 days
Identifier
64470, 2025-132A
Orbit
GEO
Last TLE update
16 hours ago
Origin
Flag of CNCAST (CN / PRC)
Manufacturer
CAST
Mission
Spacecraft
Bus & Motor
DFH-4E, FY-25
Mass
5,500 kg wet, ~2,500 kg dry
Launch date (UTC)
2025-06-20 (2 weeks ago)
Launch vehicle
CHANG ZHENG 3B
Launch site
Xichang Space Center, China (XSC)
Object type
Payload
Rocket body
Debris
Shape & HBR
Unknown
Radar Cross Section
RCS unknown

Expand to show TLE details & history

TLE from 16 hours ago
0 CHINASAT-9C
1 64470U 25132A   25181.88140405 -.00000247  00000-0  00000-0 0  9995
2 64470   0.0904 261.9129 0001635  36.3466  30.4274  1.00271480   631
Epoch: 2025-06-30T21:09Z
TLE epoch observation values (Epoch: 2025-06-30T21:09:13.309Z)
Latitude
0.06486°
Longitude
92.22011°
Altitude
35,780.208 km
Speed
3.075 km/s
True Right ascension
21h 54m 50s
True Declination
0° 03' 53"
Sunlit
Object was in daylight at epoch
Visualization orbit readout
Latitude
-0.07443°
Longitude
-29.54912°
Altitude
35,786.38 km
Speed
3.075 km/s
Apparent Right ascension
13h 40m 38s
Apparent Declination
-5° 01' 51"
Sunlit
Object is in daylight
Visualization observer readout
Local Sidereal Time
00:38:32
Azimuth
334.079° NNW
Elevation
-52.412°
Doppler factor
1
Orbital elements
Apogee altitude
35,794.645 km
Perigee altitude
35,780.857 km
Semi-major axis
42,165.888 km
Eccentricity
0.00016
Inclination
0.0904°
RAAN
261.9129°
Arg. of periapsis
36.3466°
True anomaly
Unknown
Mean anomaly
30.4274°
Eccentric anomaly
Unknown
Mean motion
0.25067 °/min
Orbital period
1,436.15 mins
BSTAR
0
Loading historical data...
64470 neighbors
Loading maneuver chart data...
Loading SW <> Apogee altitude chart data...
Loading historical data...
Loading historical data...
Loading historical data...
Loading historical data...
Loading historical data...
Loading historical data...
Loading historical data...
Other satellites on launch #132 in the year 2025 (2025-06-20 UTC)

CHINASAT-9C Visibility

Observer location: undefined°, undefined°

CHINASAT-9C is likely not visible in the next few days
Span
Click to sort rows by Start time (UTC) header in descending order
Start Az.
Max El. time (UTC)
Max El. Az.
Max El.
End time (UTC)
End Az.
|